Regional Weather Roundup
Issued by NWS Goodland, KS

Home | Current Version | Previous Version | Text Only | Print | Product List | Glossary Off
Versions: 1 2 3 4 5 6 7 8 9 10 11 12 13 14 15 16 17 18 19 20 21 22 23 24 25 26 27 28 29 30 31 32 33 34 35 36 37 38 39 40 41 42 43 44 45 46 47 48 49 50

000
ASUS43 KGLD 020608
RWRGLD

GOODLAND FORECAST AREA HOURLY WEATHER ROUNDUP
NATIONAL WEATHER SERVICE GOODLAND KS
1200 AM MDT SUN AUG 02 2015

...OFFICIAL OBSERVATIONS...

CITY           SKY/WX    TMP DP  RH WIND       PRES   REMARKS
GOODLAND KS    CLOUDY    68  61  78 S6        30.04S
HILL CITY KS   MOCLDY    75  66  73 S7        29.96F
IMPERIAL NEB   MOCLDY    73  55  53 SW8       29.98S
MCCOOK NEB     CLOUDY    75  58  55 S8        29.95F
AKRON CO       CLOUDY    69  55  60 S14       30.08F
BURLINGTON CO  CLOUDY    71  64  78 S8        30.07F
LIMON CO       CLOUDY    64  52  64 SW3       30.15F
$$

...UNOFFICIAL OBSERVATIONS...

CITY           SKY/WX    TMP DP  RH WIND       PRES   REMARKS
COLBY KS       CLEAR     72  64  78 S6        30.02S
NORTON KS      CLEAR     73  57  56 S7        29.95F
SHARON SPRINGS   N/A     72  66  81 S5          N/A
KIT CARSON CO    N/A     73  63  72 MISG        N/A
YUMA CO          N/A     68  58  71 CALM        N/A
$$



USA.gov is the U.S. government's official web portal to all federal, state and local government web resources and services.